Погода в Змейке

Россия / Ставропольский край     44°08′32″N   43°07′05″E
темп.,
°C
ветер,
м/с
пор.,
м/с
влажн.,
%
обл.,
%
осадки,
мм/ч
давл.,
гПа
погр.,
м
22 октября, пт
пт2200:00+8юв11680 0.0 102310
03:00+8ююв00680 0.0 102210
06:00+7вюв00670 0.0 102110
09:00+12вюв11500 0.0 1021130
12:00+18в22360 0.0 1020465
15:00+20вюв23340 0.0 1019590
18:00+14вюв22510 0.0 102012
21:00+12юз11560 0.0 102010
23 октября, сб
сб2300:00+11з11590 0.0 102010
03:00+10з22610 0.0 102111
06:00+9зюз11620 0.0 102110
09:00+14з11480 0.0 1020143
12:00+19в11360 0.0 1019583
15:00+20в21330 0.0 1018838
18:00+15вюв11450 0.0 101911
21:00+13зюз11501 0.0 101910
24 октября, вс
вс2400:00+11з225625 0.0 101915
03:00+10з225899 0.0 102024
06:00+10з225973 0.0 102017
09:00+13з1249100 0.0 1020128
12:00+17ссз124197 0.0 1018770
15:00+17св1141100 0.0 10171380
18:00+13ссв1158100 0.0 101717
21:00+11ссз3486100 0.2 1019500
25 октября, пн
пн2500:00+9ссз5785100 1.3 1019632
03:00+6сз5886100 1.9 1022914
06:00+4зсз41094100 0.8 1023651
09:00+6зсз7127099 1.1 10241421
12:00+7зсз81564100 0.1 10241683
15:00+7сз8144993 0.3 10261785
18:00+4сз596427 0.0 1030603
21:00+2з24745 0.0 1032126
26 октября, вт
вт2600:00+1з23764 0.0 103253
03:000з228012 0.0 103333
06:00−1з11825 0.0 103417
09:00+3с11655 0.0 1034374
12:00+6всв21494 0.0 1032857
15:00+7всв32440 0.0 1031934
18:00+4в35561 0.0 1032100
21:00+3в35633 0.0 1032105